Hourly Weather Roundup
Issued by NWS Central Illinois

Home | Current Version | Previous Version | Text Only | Print | Product List | Glossary On
Versions: 1 2 3 4 5 6 7 8 9 10 11 12 13 14 15 16 17 18 19 20 21 22 23 24 25 26 27 28 29 30 31 32 33 34 35 36 37 38 39 40 41 42 43 44 45 46 47 48 49 50
000
NZUS43 KILX 221610
HWRILX

AREA WEATHER ROUNDUP
NATIONAL WEATHER SERVICE, LINCOLN IL
1000 AM CST MON DEC 22 2014


CITY           SKY/WX    TMP DP  RH WIND       PRES   REMARKS
BLOOMINGTON    LGT RAIN  35  34  96 SE14      29.81F FOG     WCI  26
CHAMPAIGN      LGT RAIN  35  33  92 SE17      29.83F FOG     WCI  25
DECATUR        LGT RAIN  37  36  96 SE16      29.80F FOG     WCI  28
FLORA          LGT RAIN  40  39  95 SE12      29.84F WCI  34
GALESBURG      RAIN      36  34  94 E12       29.73F WCI  27
JACKSONVILLE   LGT RAIN  40  38  93 SE16      29.71F WCI  31
LACON          LGT RAIN  34  32  92 E12       29.80F WCI  25
LAWRENCEVILLE  CLOUDY    44  40  85 SE14      29.88F
LITCHFIELD     LGT RAIN  38  37  93 SE16      29.75F WCI  30
$$


CITY           SKY/WX    TMP DP  RH WIND       PRES   REMARKS
LINCOLN        LGT RAIN  37  35  95 SE9G16    29.79F WCI  30
MACOMB         LGT RAIN  37  36  98 SE12      29.74F WCI  29
MATTOON        LGT RAIN  37  34  89 SE13      29.82F FOG     WCI  29
MT CARMEL AP   CLOUDY    45  39  81 SE10      29.87F
OLNEY-NOBLE AP CLOUDY    41  37  87 SE10      29.86S WCI  35
PARIS          DRIZZLE   37  35  93 SE8       29.87F WCI  30
PEORIA         LGT RAIN  37  34  89 E13       29.77F FOG     WCI  29
PONTIAC        MIX PCPN  34  33  94 E13       29.85F WCI  25
RANTOUL        LGT RAIN  37  34  92 SE13      29.84F WCI  28
ROBINSON       CLOUDY    39  37  91 SE9       29.89F WCI  33
SPRINGFIELD    RAIN      38  37  97 SE15      29.76F FOG     WCI  29
TAYLORVILLE    LGT RAIN  36  36 100 SE15      29.77F WCI  26
$$

...REGIONAL REPORTS...


CITY           SKY/WX    TMP DP  RH WIND       PRES   REMARKS
CHICAGO O`HARE CLOUDY    35  27  72 E7        29.87F WCI  29
KANKAKEE       LGT RAIN  33  32  93 E14       29.88F WCI  24
MOLINE         LGT RAIN  37  31  78 E16       29.75F WCI  28
MOUNT VERNON   CLOUDY    43  36  75 E6        29.82F
PITTSFIELD     LGT RAIN  40  38  93 SE10      29.71S WCI  34
QUINCY         LGT RAIN  39  37  92 SE9       29.68F FOG     WCI  33
ROCKFORD       CLOUDY    34  29  82 E14       29.85F HAZE    WCI  25
$$


CITY           SKY/WX    TMP DP  RH WIND       PRES   REMARKS
BURLINGTON     LGT RAIN  37  35  92 SE12      29.69F FOG     WCI  29
CEDAR RAPIDS   CLOUDY    37  34  89 SE12      29.69F FOG     WCI  29
DES MOINES     LGT RAIN  40  37  89 SE10      29.61F FOG     WCI  33
KIRKSVILLE     CLOUDY    39  38  96 SE13      29.65F FOG     WCI  31
OTTUMWA        LGT RAIN  38  35  89 SE13      29.65F FOG     WCI  30
ST LOUIS       LGT RAIN  44  41  89 SE13      29.73F FOG
$$


CITY           SKY/WX    TMP DP  RH WIND       PRES   REMARKS
TERRE HAUTE    CLOUDY    39  34  82 SE12      29.88F WCI  32
EVANSVILLE     CLOUDY    48  42  80 SE6       29.88F
INDIANAPOLIS   CLOUDY    36  31  82 SE9       29.93R WCI  29
LAFAYETTE      CLOUDY    36  31  82 SE5       29.92S WCI  32
MADISON        CLOUDY    35  30  82 SE10      29.83F HAZE    WCI  27
MILWAUKEE      CLOUDY    37  31  78 SE14      29.90S HAZE    WCI  28
$$




USA.gov is the U.S. government's official web portal to all federal, state and local government web resources and services.